Hourly Weather Mungaoli

Today, 28 September, Tuesday

Time Temperature Precipitation Wind Pressure Humidity
00:00 +27°C° 0.1 mm 3 mps 718 mmHg 88%
01:00 +27°C° 0.1 mm 3 mps 718 mmHg 89%
02:00 +27°C° 0.1 mm 3 mps 718 mmHg 89%
03:00 +26°C° 0.2 mm 3 mps 718 mmHg 90%
04:00 +26°C° 0.2 mm 3 mps 718 mmHg 91%
05:00 +26°C° 0 mm 3 mps 718 mmHg 92%
06:00 +26°C° 0 mm 3 mps 719 mmHg 90%
07:00 +27°C° 0 mm 4 mps 719 mmHg 88%
08:00 +27°C° 0 mm 4 mps 720 mmHg 87%
09:00 +28°C° 0 mm 4 mps 720 mmHg 81%
10:00 +29°C° 0 mm 4 mps 720 mmHg 76%
11:00 +32°C° 0 mm 5 mps 720 mmHg 70%
12:00 +32°C° 0 mm 5 mps 719 mmHg 68%
13:00 +32°C° 0 mm 5 mps 718 mmHg 65%
14:00 +33°C° 0 mm 5 mps 718 mmHg 63%
15:00 +32°C° 0 mm 4 mps 718 mmHg 68%
16:00 +30°C° 0 mm 4 mps 718 mmHg 73%
17:00 +29°C° 0 mm 3 mps 718 mmHg 79%
18:00 +29°C° 0.3 mm 3 mps 718 mmHg 81%
19:00 +28°C° 0.3 mm 3 mps 719 mmHg 84%
20:00 +27°C° 0.3 mm 3 mps 719 mmHg 86%
21:00 +27°C° 0.5 mm 3 mps 719 mmHg 86%
22:00 +27°C° 0.5 mm 3 mps 720 mmHg 86%
23:00 +27°C° 0.5 mm 3 mps 720 mmHg 86%

Tomorrow, 29 September, Wednesday

Time Temperature Precipitation Wind Pressure Humidity
00:00 +26°C° 0.9 mm 2 mps 719 mmHg 88%
01:00 +26°C° 0.9 mm 2 mps 719 mmHg 90%
02:00 +26°C° 0.9 mm 2 mps 719 mmHg 92%
03:00 +26°C° 0 mm 2 mps 719 mmHg 92%
04:00 +26°C° 0 mm 2 mps 719 mmHg 92%
05:00 +25°C° 0 mm 2 mps 719 mmHg 92%
06:00 +26°C° 0 mm 3 mps 720 mmHg 89%
07:00 +27°C° 0 mm 4 mps 720 mmHg 85%
08:00 +28°C° 0 mm 4 mps 721 mmHg 81%
09:00 +29°C° 0 mm 4 mps 721 mmHg 76%
10:00 +30°C° 0 mm 4 mps 721 mmHg 71%
11:00 +33°C° 0 mm 4 mps 721 mmHg 66%
12:00 +33°C° 0 mm 4 mps 720 mmHg 64%
13:00 +33°C° 0 mm 4 mps 719 mmHg 62%
14:00 +34°C° 0 mm 4 mps 719 mmHg 60%
15:00 +33°C° 0.2 mm 3 mps 719 mmHg 65%
16:00 +31°C° 0.2 mm 3 mps 719 mmHg 70%
17:00 +30°C° 0.2 mm 2 mps 719 mmHg 75%
18:00 +30°C° 0.1 mm 2 mps 720 mmHg 76%
19:00 +29°C° 0.1 mm 2 mps 720 mmHg 78%
20:00 +28°C° 0.1 mm 2 mps 720 mmHg 79%
21:00 +28°C° 0 mm 2 mps 720 mmHg 81%
22:00 +28°C° 0 mm 2 mps 721 mmHg 82%
23:00 +27°C° 0 mm 2 mps 721 mmHg 84%

Day after tomorrow, 30 September, Thursday

Time Temperature Precipitation Wind Pressure Humidity
00:00 +27°C° 1 mm 2 mps 720 mmHg 86%
01:00 +27°C° 1 mm 2 mps 720 mmHg 88%
02:00 +26°C° 1 mm 2 mps 720 mmHg 90%
03:00 +26°C° 0 mm 1 mps 720 mmHg 90%
04:00 +26°C° 0 mm 1 mps 720 mmHg 89%
05:00 +26°C° 0 mm 1 mps 720 mmHg 89%
06:00 +27°C° 0 mm 1 mps 721 mmHg 85%
07:00 +28°C° 0 mm 1 mps 722 mmHg 82%
08:00 +29°C° 0 mm 1 mps 722 mmHg 78%
09:00 +30°C° 1 mm 1 mps 722 mmHg 74%
10:00 +31°C° 1 mm 1 mps 722 mmHg 69%
11:00 +31°C° 1 mm 1 mps 722 mmHg 65%
12:00 +32°C° 1.2 mm 1 mps 721 mmHg 63%
13:00 +32°C° 1.2 mm 1 mps 720 mmHg 62%
14:00 +33°C° 1.2 mm 1 mps 720 mmHg 61%
15:00 +32°C° 0.9 mm 1 mps 720 mmHg 67%
16:00 +31°C° 0.9 mm 1 mps 720 mmHg 72%
17:00 +30°C° 0.9 mm 1 mps 720 mmHg 78%
18:00 +29°C° 2.1 mm 1 mps 720 mmHg 80%
19:00 +29°C° 2.1 mm 2 mps 721 mmHg 81%
20:00 +28°C° 2.1 mm 2 mps 721 mmHg 83%
21:00 +28°C° 2 mm 2 mps 721 mmHg 85%
22:00 +27°C° 2 mm 2 mps 721 mmHg 87%
23:00 +27°C° 2 mm 2 mps 721 mmHg 89%

1 October, Friday

Time Temperature Precipitation Wind Pressure Humidity
00:00 +27°C° 0.1 mm 1 mps 721 mmHg 89%
01:00 +27°C° 0.1 mm 1 mps 721 mmHg 88%
02:00 +27°C° 0.1 mm 1 mps 720 mmHg 88%
03:00 +27°C° 0 mm 1 mps 720 mmHg 88%
04:00 +27°C° 0 mm 1 mps 721 mmHg 88%
05:00 +27°C° 0 mm 1 mps 721 mmHg 88%
06:00 +27°C° 0.1 mm 1 mps 721 mmHg 85%
07:00 +28°C° 0.1 mm 2 mps 722 mmHg 83%
08:00 +29°C° 0.1 mm 2 mps 722 mmHg 81%
09:00 +30°C° 1 mm 2 mps 722 mmHg 76%
10:00 +31°C° 1 mm 2 mps 722 mmHg 71%
11:00 +32°C° 1 mm 2 mps 722 mmHg 67%
12:00 +32°C° 0.5 mm 2 mps 721 mmHg 64%
13:00 +34°C° 0.5 mm 2 mps 720 mmHg 62%
14:00 +34°C° 0.5 mm 2 mps 720 mmHg 59%
15:00 +32°C° 0.5 mm 2 mps 720 mmHg 64%
16:00 +32°C° 0.5 mm 1 mps 720 mmHg 68%
17:00 +31°C° 0.5 mm 1 mps 720 mmHg 73%
18:00 +30°C° 0.1 mm 1 mps 720 mmHg 74%
19:00 +30°C° 0.1 mm 1 mps 720 mmHg 76%
20:00 +29°C° 0.1 mm 1 mps 721 mmHg 78%
21:00 +29°C° 0.1 mm 1 mps 721 mmHg 78%
22:00 +27°C° 0.1 mm 0 mps 721 mmHg 79%
23:00 +27°C° 0.1 mm 0 mps 721 mmHg 79%

2 October, Saturday

Time Temperature Precipitation Wind Pressure Humidity
00:00 +28°C° 0.1 mm 1 mps 720 mmHg 80%
01:00 +28°C° 0.1 mm 1 mps 720 mmHg 82%
02:00 +27°C° 0.1 mm 1 mps 720 mmHg 83%
03:00 +27°C° 0 mm 1 mps 720 mmHg 84%
04:00 +27°C° 0 mm 1 mps 720 mmHg 85%
05:00 +27°C° 0 mm 1 mps 720 mmHg 85%
06:00 +28°C° 0 mm 1 mps 721 mmHg 82%
07:00 +28°C° 0 mm 1 mps 721 mmHg 79%
08:00 +29°C° 0 mm 1 mps 722 mmHg 75%
09:00 +30°C° 0 mm 1 mps 722 mmHg 71%
10:00 +31°C° 0 mm 2 mps 721 mmHg 67%
11:00 +32°C° 0 mm 2 mps 721 mmHg 63%
12:00 +32°C° 0.4 mm 1 mps 721 mmHg 61%
13:00 +33°C° 0.4 mm 1 mps 720 mmHg 59%
14:00 +33°C° 0.4 mm 1 mps 719 mmHg 57%
15:00 +32°C° 0.8 mm 1 mps 719 mmHg 64%
16:00 +31°C° 0.8 mm 2 mps 719 mmHg 71%
17:00 +29°C° 0.8 mm 3 mps 720 mmHg 78%
18:00 +29°C° 0.1 mm 2 mps 720 mmHg 80%
19:00 +28°C° 0.1 mm 2 mps 720 mmHg 82%
20:00 +28°C° 0.1 mm 2 mps 721 mmHg 84%
21:00 +28°C° 0 mm 2 mps 721 mmHg 84%
22:00 +28°C° 0 mm 1 mps 721 mmHg 84%
23:00 +28°C° 0 mm 1 mps 721 mmHg 83%

3 October, Sunday

Time Temperature Precipitation Wind Pressure Humidity
00:00 +27°C° 0 mm 1 mps 720 mmHg 84%
01:00 +27°C° 0 mm 1 mps 720 mmHg 84%
02:00 +27°C° 0 mm 1 mps 720 mmHg 85%
03:00 +27°C° 0.3 mm 1 mps 720 mmHg 85%
04:00 +25°C° 0.3 mm 0 mps 720 mmHg 86%
05:00 +24°C° 0.3 mm 0 mps 720 mmHg 87%
06:00 +25°C° 0.1 mm 0 mps 721 mmHg 83%
07:00 +28°C° 0.1 mm 1 mps 721 mmHg 80%
08:00 +29°C° 0.1 mm 1 mps 722 mmHg 77%
09:00 +30°C° 0.7 mm 1 mps 722 mmHg 72%
10:00 +31°C° 0.7 mm 1 mps 721 mmHg 67%
11:00 +30°C° 0.7 mm 0 mps 721 mmHg 63%
12:00 +32°C° 0.2 mm 1 mps 721 mmHg 61%
13:00 +33°C° 0.2 mm 1 mps 720 mmHg 60%
14:00 +33°C° 0.2 mm 1 mps 720 mmHg 59%
15:00 +32°C° 0 mm 1 mps 719 mmHg 63%
16:00 +32°C° 0 mm 1 mps 719 mmHg 68%
17:00 +31°C° 0 mm 1 mps 719 mmHg 72%
18:00 +31°C° 0 mm 1 mps 720 mmHg 73%
19:00 +30°C° 0 mm 1 mps 720 mmHg 73%
20:00 +29°C° 0 mm 1 mps 721 mmHg 73%
21:00 +29°C° 0 mm 1 mps 720 mmHg 74%
22:00 +29°C° 0 mm 1 mps 720 mmHg 75%
23:00 +27°C° 0 mm 0 mps 720 mmHg 75%
Show more

We Need Your Consent

Meteoprog and our Service Providers may store and access personal data such as cookies, device identifiers or other similar technologies on your device and process such data to personalise content and ads, as well as provide social media features and to analyse the traffic.

  • Store and/or access information on your device

    Cookies, device identifiers or other information can be stored or accessed on your device for the purposes indicated above.

  • Personalised ads and content, ad and content measurement, audience insights, and products development

    Ads and content can be personalised based on a profile. More data can be added to better personalise ads and content. Ad and content performance can be measured. Insights about the audience who saw the ads and content can be derived. Such data can be used to develop or improve user’s experience, systems and software.

By clicking ‘I Agree’ you will allow the use of indicated cookies, device identifiers, web beacons or other similar technologies. Your settings can be changed in the browser on your device.

For certain purposes, legitimate interests may be relied on, rather than consent. You can read more about this in our Privacy and Cookie Policy.